Find Starlink 31737

NORAD ID: 59537 Int'l Des: 2024-074 Owner: SPXS Country: US Constellation: starlink operational
LEOCIRCULAR

Live-Position

3D-Globus wird geladen...

Über Starlink 31737

Beschreibung wird geladen...

Nächste Überflüge

Passes for default location (London). Set your location on the main map for personalized predictions.

Höhenverlauf

Loading altitude history...

Zweizeiliger Elementsatz

1 59537U 24074D 26123.93115441 -.00000937 00000-0 -24537-4 0 9994
2 59537 43.0040 31.4760 0001048 266.0021 94.0711 15.27577637114461
Epoch: 3. Mai 2026 • Age: 16 hours

Aktueller Status

Höhe 484.6 km
Geschwindigkeit 7.63 km/s
Subsatellitenpunkt 32.50°N, 83.37°E
Startdatum 18. Apr. 2024
Alter 2 years
Typ internet

Technische Details

Klassifizierung Payload
Masse 730.00 kg
Trockenmasse 700.00 kg
Gesamtmasse 730.00 kg
Länge 0.30 m
Durchmesser 4.10 m
Spannweite 29.00 m
Form Box + pan
Hersteller SPXS
Bus-Typ Starlink V2M
Phasenstatus In Orbit
Besitzer/Staat SPXS/US

Most Searched